DW1490 Weather Reports


time (UTC)temp
C
wind
direction
speed
KPH
gust
KPH
rain 1hr
cm
rain 24hr
cm
rain mn
cm
humidity
%
barometer
mb
20211017164525 15 65 3.2 12.9 0.00 0.00 0.00 27 1025.8
20211017163516 13 104 1.6 8.0 0.00 0.00 0.00 30 1025.6
20211017162523 13 69 3.2 8.0 0.00 0.00 0.00 30 1025.6
20211017161517 13 126 3.2 12.9 0.00 0.00 0.00 31 1025.6
20211017160525 12 90 3.2 8.0 0.00 0.00 0.00 32 1025.3
20211017155517 11 85 3.2 8.0 0.00 0.00 0.00 34 1025.3
20211017154527 10 56 3.2 12.9 0.00 0.00 0.00 35 1025.2
20211017153517 9 20 6.4 16.1 0.00 0.00 0.00 36 1024.7
20211017152524 8 35 6.4 12.9 0.00 0.00 0.00 37 1024.7
20211017151516 8 300 6.4 12.9 0.00 0.00 0.00 39 1024.3
20211017150525 8 117 3.2 8.0 0.00 0.00 0.00 40 1024.3
20211017145516 7 260 6.4 12.9 0.00 0.00 0.00 41 1024.3
20211017144525 7 193 1.6 8.0 0.00 0.00 0.00 42 1024.2
20211017143516 7 94 1.6 8.0 0.00 0.00 0.00 45 1024.2
20211017142523 7 0.0 0.0 0.00 0.00 0.00 49 1023.8
20211017141520 6 105 0.0 4.8 0.00 0.00 0.00 50 1023.8
20211017140524 5 89 1.6 4.8 0.00 0.00 0.00 53 1023.3
20211017135518 5 99 3.2 8.0 0.00 0.00 0.00 57 1023.2
20211017134524 3 121 0.0 4.8 0.00 0.00 0.00 59 1022.9
20211017133518 4 96 0.0 4.8 0.00 0.00 0.00 58 1023.2
20211017132541 3 101 3.2 8.0 0.00 0.00 0.00 58 1023.2
20211017131517 3 137 0.0 4.8 0.00 0.00 0.00 59 1023.2
20211017130525 4 105 0.0 4.8 0.00 0.00 0.00 56 1023.5
20211017125516 4 88 1.6 4.8 0.00 0.00 0.00 54 1023.5
20211017124541 4 96 0.0 4.8 0.00 0.00 0.00 56 1023.7
20211017123517 4 110 0.0 4.8 0.00 0.00 0.00 56 1023.8
20211017122528 4 92 0.0 4.8 0.00 0.00 0.00 57 1024.2
20211017121517 5 96 0.0 4.8 0.00 0.00 0.00 54 1024.4
20211017120525 4 110 0.0 4.8 0.00 0.00 0.00 57 1024.3
20211017115517 4 116 0.0 4.8 0.00 0.00 0.00 57 1024.3
20211017114525 5 98 1.6 4.8 0.00 0.00 0.00 54 1024.6
20211017113517 5 104 1.6 4.8 0.00 0.00 0.00 53 1024.6
20211017112526 5 101 3.2 8.0 0.00 0.00 0.00 53 1024.6
20211017111516 5 99 1.6 4.8 0.00 0.00 0.00 54 1024.7
20211017110525 5 96 0.0 4.8 0.00 0.00 0.00 52 1025.1
20211017105517 5 101 1.6 4.8 0.00 0.00 0.00 54 1025.2
20211017104525 5 96 0.0 4.8 0.00 0.00 0.00 53 1025.6
20211017103532 5 99 1.6 4.8 0.00 0.00 0.00 53 1025.2
20211017102525 5 0.0 0.0 0.00 0.00 0.00 51 1025.6
20211017101516 5 0.0 0.0 0.00 0.00 0.00 50 1025.6
20211017100524 5 98 3.2 8.0 0.00 0.00 0.00 50 1025.2
20211017095517 6 92 3.2 4.8 0.00 0.00 0.00 48 1025.7
20211017094524 6 107 1.6 4.8 0.00 0.00 0.00 48 1025.8
20211017093518 5 99 1.6 8.0 0.00 0.00 0.00 47 1025.8
20211017092527 6 0.0 0.0 0.00 0.00 0.00 45 1026.0
20211017091518 6 0.0 0.0 0.00 0.00 0.00 43 1026.2
20211017090526 7 78 1.6 4.8 0.00 0.00 0.00 42 1026.2
20211017085516 7 68 3.2 8.0 0.00 0.00 0.00 41 1026.4
20211017084525 6 92 0.0 4.8 0.00 0.00 0.00 45 1026.0
20211017083516 6 77 1.6 4.8 0.00 0.00 0.00 44 1026.0
20211017082525 6 88 3.2 4.8 0.00 0.00 0.00 45 1026.0
20211017081532 6 0.0 0.0 0.00 0.00 0.00 47 1025.7
20211017080524 6 94 1.6 4.8 0.00 0.00 0.00 46 1025.7
20211017075519 7 74 3.2 8.0 0.00 0.00 0.00 43 1025.7
20211017074524 7 94 1.6 4.8 0.00 0.00 0.00 44 1026.0
20211017073518 8 61 3.2 8.0 0.00 0.00 0.00 38 1026.4
20211017072524 8 92 1.6 4.8 0.00 0.00 0.00 38 1026.0
20211017071520 8 102 1.6 4.8 0.00 0.00 0.00 40 1026.0
20211017070524 7 93 3.2 4.8 0.00 0.00 0.00 40 1026.0
20211017065517 8 91 3.2 4.8 0.00 0.00 0.00 39 1026.0
20211017064525 8 129 0.0 4.8 0.00 0.00 0.00 40 1026.0
20211017063516 8 84 1.6 4.8 0.00 0.00 0.00 38 1026.0
20211017062526 9 117 0.0 4.8 0.00 0.00 0.00 37 1026.4
20211017061517 9 96 3.2 8.0 0.00 0.00 0.00 36 1026.0
20211017060526 10 96 4.8 8.0 0.00 0.00 0.00 35 1026.0
20211017055029 10 97 8.0 12.9 0.00 0.00 0.00 34 1026.0
20211017054020 10 93 1.6 8.0 0.00 0.00 0.00 34 1026.0
20211017053029 10 96 3.2 8.0 0.00 0.00 0.00 34 1025.6
20211017052020 11 102 1.6 8.0 0.00 0.00 0.00 31 1026.0
20211017051028 11 84 11.3 20.9 0.00 0.00 0.00 30 1025.6
20211017050021 10 84 3.2 12.9 0.00 0.00 0.00 32 1025.3
20211017045028 10 94 0.0 4.8 0.00 0.00 0.00 33 1024.9
20211017044021 10 86 1.6 4.8 0.00 0.00 0.00 33 1024.9
20211017043029 10 40 3.2 12.9 0.00 0.00 0.00 33 1024.9
20211017042022 11 96 1.6 4.8 0.00 0.00 0.00 31 1024.9
20211017041029 11 92 1.6 4.8 0.00 0.00 0.00 31 1024.5
20211017040020 12 84 1.6 4.8 0.00 0.00 0.00 29 1024.5
20211017035029 12 91 9.7 20.9 0.00 0.00 0.00 27 1024.9
20211017034020 12 90 12.9 24.1 0.00 0.00 0.00 26 1024.4
20211017033029 13 91 11.3 20.9 0.00 0.00 0.00 26 1024.0
20211017032021 13 96 8.0 20.9 0.00 0.00 0.00 26 1023.9
20211017031028 13 91 8.0 16.1 0.00 0.00 0.00 25 1023.4
20211017030021 13 93 11.3 20.9 0.00 0.00 0.00 25 1023.4
20211017025029 13 84 12.9 24.1 0.00 0.00 0.00 26 1023.5
20211017024021 13 88 14.5 24.1 0.00 0.00 0.00 26 1023.4
20211017023030 13 89 12.9 20.9 0.00 0.00 0.00 26 1023.0
20211017022023 13 91 11.3 16.1 0.00 0.00 0.00 26 1022.5
20211017021029 13 96 11.3 24.1 0.00 0.00 0.00 25 1022.5
20211017020023 13 93 11.3 20.9 0.00 0.00 0.00 25 1022.2
20211017015029 13 87 11.3 20.9 0.00 0.00 0.00 25 1021.7
20211017014023 14 90 11.3 16.1 0.00 0.00 0.00 26 1021.6
20211017013029 14 91 9.7 16.1 0.00 0.00 0.00 27 1021.6
20211017012020 15 98 6.4 8.0 0.00 0.00 0.00 26 1021.8
20211017011029 15 103 1.6 4.8 0.00 0.00 0.00 25 1022.1
20211017010023 16 131 1.6 4.8 0.00 0.00 0.00 23 1022.1
20211017005028 16 145 3.2 8.0 0.00 0.00 0.00 22 1022.3
20211017004021 16 160 3.2 8.0 0.00 0.00 0.00 21 1022.2
20211017003028 17 183 4.8 12.9 0.00 0.00 0.00 21 1022.5
20211017002024 17 190 11.3 20.9 0.00 0.00 0.00 19 1022.4
20211017001028 17 189 11.3 24.1 0.00 0.00 0.00 19 1022.4
20211017000020 18 193 12.9 20.9 0.00 0.00 0.00 19 1022.8
20211016235032 18 203 17.7 32.2 0.00 0.00 0.00 18 1022.8
20211016234020 18 190 12.9 24.1 0.00 0.00 0.00 17 1023.1
20211016233030 18 199 17.7 37.0 0.00 0.00 0.00 17 1023.1
20211016232021 18 208 11.3 37.0 0.00 0.00 0.00 17 1023.1
20211016231030 19 189 12.9 29.0 0.00 0.00 0.00 16 1023.5
20211016230021 19 177 9.7 24.1 0.00 0.00 0.00 16 1023.6
20211016225029 19 180 11.3 29.0 0.00 0.00 0.00 15 1023.3
20211016224021 19 207 14.5 29.0 0.00 0.00 0.00 16 1023.3
20211016223029 19 191 14.5 32.2 0.00 0.00 0.00 16 1023.8
20211016222022 20 202 12.9 24.1 0.00 0.00 0.00 15 1024.3
20211016221030 19 202 16.1 32.2 0.00 0.00 0.00 15 1024.3
20211016220022 20 195 17.7 45.1 0.00 0.00 0.00 15 1024.5
20211016215030 20 201 14.5 37.0 0.00 0.00 0.00 15 1024.5
20211016214020 19 199 16.1 32.2 0.00 0.00 0.00 15 1024.6
20211016213029 20 208 12.9 32.2 0.00 0.00 0.00 16 1024.7
20211016212021 19 188 17.7 29.0 0.00 0.00 0.00 16 1024.8
20211016211030 20 206 8.0 29.0 0.00 0.00 0.00 16 1025.1
20211016210021 18 229 14.5 40.2 0.00 0.00 0.00 16 1024.8
20211016205105 18 185 17.7 45.1 0.00 0.00 0.00 16 1024.8
20211016204021 19 196 16.1 40.2 0.00 0.00 0.00 16 1025.4
20211016203029 18 188 9.7 40.2 0.00 0.00 0.00 16 1025.5
20211016202021 18 202 12.9 32.2 0.00 0.00 0.00 17 1025.6
20211016201029 18 188 14.5 29.0 0.00 0.00 0.00 17 1025.8
20211016200022 17 185 12.9 29.0 0.00 0.00 0.00 17 1025.6
20211016195029 18 181 16.1 40.2 0.00 0.00 0.00 16 1026.0
20211016194023 18 199 11.3 24.1 0.00 0.00 0.00 17 1026.3
20211016193030 18 196 6.4 12.9 0.00 0.00 0.00 18 1026.5
20211016192022 17 196 11.3 20.9 0.00 0.00 0.00 16 1026.1
20211016191030 17 167 6.4 16.1 0.00 0.00 0.00 18 1026.4
20211016190020 17 272 8.0 16.1 0.00 0.00 0.00 18 1026.9
20211016185030 17 232 8.0 16.1 0.00 0.00 0.00 18 1027.2
20211016184023 18 166 4.8 16.1 0.00 0.00 0.00 18 1027.4
20211016183029 17 114 1.6 8.0 0.00 0.00 0.00 18 1027.5
20211016182021 16 139 6.4 12.9 0.00 0.00 0.00 18 1027.3
20211016181029 16 182 4.8 12.9 0.00 0.00 0.00 20 1027.5
20211016180022 15 253 8.0 20.9 0.00 0.00 0.00 20 1027.1
20211016175031 16 67 3.2 12.9 0.00 0.00 0.00 20 1027.5
20211016174021 15 157 3.2 8.0 0.00 0.00 0.00 21 1027.3
20211016173030 15 84 4.8 12.9 0.00 0.00 0.00 21 1027.4
20211016172020 15 147 3.2 8.0 0.00 0.00 0.00 22 1027.5
20211016171030 13 36 3.2 12.9 0.00 0.00 0.00 23 1027.2
20211016170021 13 326 4.8 12.9 0.00 0.00 0.00 24 1026.8
20211016165031 12 277 8.0 16.1 0.00 0.00 0.00 25 1026.4